Sabato 19 Settembre 2020

 
Calliano - Provincia di Trento

189 mslm

45° 55' 59'' N 11° 05' 53'' E

Pagine realizzate e gestite da Andrea Pernecher

 

Tutti gli orari sono riferiti all'ora solare (GMT+1h)

>stazione meteo :: i dati del giorno  

 Dati relativi a SABATO 19 SETTEMBRE 2020 ORE 15.49
 

 TEMPERATURA

24,5 °C

 

 ESCURS. TERMICA 11,2 °C

 

 

 TEMPERATURA MIN

14,7 °C

alle 06:43

 

 TEMPERATURA MAX 25,9 °C

alle 14:32

 

 TEMP.MEDIA INTEG.

19.3 °C

       
 

 PRESSIONE

1.014 mbar

 

 UMIDITA' 38 %

 

 PIOGGIA

0,0 mm

 

 INTENS. PIOGGIA 0,0 mm/h

 

 VENTO MAX

6,3 m/s

N

 

 DEW POINT

9,3 °C

 
Immagini WebCam
ORE 8.00 ORE 12.00 ORE 16.00

> visualizza webcam 24 ore

 

 Dettaglio rilevazioni di Sabato 19 Settembre 2020 (ogni 15 minuti)
Ora Temperatura °C Umidità R. % Pressione mbar Vento m/s Dew Point °C Pioggia totale caduta mm Intensità della pioggia mm/h
  TEMPERATURA UMIDITA' PRESSIONE VENTO DEW POINT PIOGGIA INTENS. PIOGGIA
15:30 25,4 37 1.014 3,9 WSW 9,7 0,0 0,0
15:15 25,6 39 1.014 2,8 W 10,6 0,0 0,0
15:00 25,1 39 1.014 2,6 NW 10,2 0,0 0,0
14:45 25,6 38 1.014 3,6 W 10,2 0,0 0,0
14:30 25,8 39 1.015 2,6 WNW 10,8 0,0 0,0
14:15 25,0 41 1.015 3,4 W 10,8 0,0 0,0
14:00 24,6 42 1.015 3,6 WSW 10,8 0,0 0,0
13:45 24,8 41 1.015 1,6 WSW 10,7 0,0 0,0
13:30 25,4 38 1.015 3,9 WNW 10,1 0,0 0,0
13:15 25,7 38 1.015 2,2 W 10,3 0,0 0,0
13:00 25,7 39 1.015 2,4 W 10,7 0,0 0,0
12:45 25,6 39 1.015 2,4 WNW 10,6 0,0 0,0
12:30 25,3 40 1.015 2,6 NNW 10,7 0,0 0,0
12:15 24,9 41 1.016 1,0 WNW 10,8 0,0 0,0
12:00 24,7 42 1.016 3,4 WNW 10,9 0,0 0,0
11:45 24,3 43 1.016 3,4 W 10,9 0,0 0,0
11:30 24,1 42 1.016 2,4 WNW 10,4 0,0 0,0
11:15 23,7 47 1.017 2,6 W 11,7 0,0 0,0
11:00 23,3 49 1.017 2,6 SSW 12,0 0,0 0,0
10:45 23,1 52 1.017 2,6 WSW 12,7 0,0 0,0
10:30 22,4 61 1.017 3,4 SSW 14,5 0,0 0,0
10:15 21,3 64 1.017 1,8 S 14,2 0,0 0,0
10:00 20,1 65 1.017 1,2 NNE 13,3 0,0 0,0
09:45 19,5 72 1.018 1,2 ENE 14,3 0,0 0,0
09:30 18,9 80 1.017 1,2 WNW 15,4 0,0 0,0
09:15 18,4 81 1.018 0,0 SW 15,1 0,0 0,0
09:00 17,9 82 1.018 2,6 SSW 14,8 0,0 0,0
08:45 17,2 82 1.018 0,0 WSW 14,1 0,0 0,0
08:30 16,7 82 1.018 1,6 SW 13,6 0,0 0,0
08:15 16,2 81 1.018 1,8 W 12,9 0,0 0,0
08:00 15,8 81 1.018 0,0 WSW 12,5 0,0 0,0
07:45 15,3 81 1.018 0,0 WSW 12,1 0,0 0,0
07:30 15,0 80 1.018 0,0 WSW 11,6 0,0 0,0
07:15 14,8 80 1.017 0,0 WSW 11,4 0,0 0,0
07:00 14,7 80 1.017 0,0 WSW 11,3 0,0 0,0
06:45 14,7 80 1.018 1,0 WSW 11,3 0,0 0,0
06:30 15,0 80 1.017 0,0 ESE 11,6 0,0 0,0
06:15 15,0 79 1.017 0,0 ESE 11,4 0,0 0,0
06:00 15,1 79 1.017 0,0 ESE 11,5 0,0 0,0
05:45 15,4 79 1.017 0,0 ESE 11,8 0,0 0,0
05:30 15,6 80 1.017 0,0 ESE 12,2 0,0 0,0
05:15 15,6 78 1.017 1,2 E 11,8 0,0 0,0
05:00 15,5 78 1.017 0,0 NNW 11,7 0,0 0,0
04:45 15,2 77 1.017 1,0 NNW 11,2 0,0 0,0
04:30 15,4 77 1.017 0,0 NNW 11,4 0,0 0,0
04:15 15,4 76 1.018 0,0 NNW 11,2 0,0 0,0
04:00 15,5 76 1.018 0,0 NNW 11,3 0,0 0,0
03:45 15,8 76 1.018 0,0 NNW 11,6 0,0 0,0
03:30 15,8 75 1.018 1,4 NNW 11,4 0,0 0,0
03:15 15,8 75 1.018 0,0 NNW 11,4 0,0 0,0
03:00 15,9 74 1.018 0,0 NNW 11,3 0,0 0,0
02:45 16,0 73 1.018 0,0 NNW 11,2 0,0 0,0
02:30 15,9 73 1.018 0,0 NNW 11,1 0,0 0,0
02:15 15,9 73 1.018 0,0 NNW 11,1 0,0 0,0
02:00 16,1 72 1.018 0,0 NNW 11,1 0,0 0,0
01:45 16,3 72 1.018 0,0 NNW 11,2 0,0 0,0
01:30 16,4 71 1.018 0,0 NNW 11,1 0,0 0,0
01:15 16,6 71 1.018 0,0 NNW 11,3 0,0 0,0
01:00 16,8 70 1.018 0,0 NNW 11,3 0,0 0,0
00:45 17,0 70 1.018 0,0 NNW 11,5 0,0 0,0
00:30 17,2 69 1.018 0,0 W 11,5 0,0 0,0
00:15 17,4 69 1.018 0,0 W 11,7 0,0 0,0
00:00 17,7 69 1.018 0,0 W 11,9 0,0 0,0

 

 

Stampa paginastampa    torna in cima

 2002-2020 osservatoriocalliano.it